Regional Weather Roundup
Issued by NWS Charleston, WV

Home | Current Version | Previous Version | Text Only | Print | Product List | Glossary Off
Versions: 1 2 3 4 5 6 7 8 9 10 11 12 13 14 15 16 17 18 19 20 21 22 23 24 25 26 27 28

000
ASUS41 KRLX 311310
RWRRLX
West Virginia Regional Weather Roundup
National Weather Service Charleston WV
900 AM EDT TUE MAY 31 2016

Note: "fair" indicates few or no clouds below 12,000 feet with no
significant weather and/or obstructions to visibility.

WVZ003-311400-
Northern Panhandle of West Virginia

CITY           SKY/WX    TMP DP  RH WIND       PRES   REMARKS
WHEELING         N/A     71  60  68 CALM      30.03S
$$

WVZ009-311400-
Northwest West Virginia

CITY           SKY/WX    TMP DP  RH WIND       PRES   REMARKS
PARKERSBURG      N/A     70  63  78 CALM      30.05S
$$

WVZ006-311400-
Western West Virginia

CITY           SKY/WX    TMP DP  RH WIND       PRES   REMARKS
HUNTINGTON       N/A     69  63  81 CALM      30.03R
$$

WVZ015-311400-
West Central West Virginia

CITY           SKY/WX    TMP DP  RH WIND       PRES   REMARKS
CHARLESTON       N/A     65  62  90 CALM      30.03S
$$

WVZ022-031-311400-
North Central West Virginia

CITY           SKY/WX    TMP DP  RH WIND       PRES   REMARKS
CLARKSBURG       N/A     64  63  96 NW3       30.05R FOG
MORGANTOWN       N/A     70  58  65 CALM      30.05S
$$

WVZ025-035-042-045-311400-
Southern West Virginia

CITY           SKY/WX    TMP DP  RH WIND       PRES   REMARKS
BECKLEY          N/A     69  59  70 NE5       30.09R
LOGAN            N/A     73  64  73 CALM      30.05R
BLUEFIELD        N/A     67  60  78 SE3       30.11R
LEWISBURG      FOG       60  60  99 N3        30.10R VSB 3/4
$$

WVZ047-311400-
Northern Mountains of West Virginia

CITY           SKY/WX    TMP DP  RH WIND       PRES   REMARKS
ELKINS         PTSUNNY   61  58  90 CALM      30.09S FOG
$$

WVZ052-311400-
Eastern Panhandle of West Virginia

CITY           SKY/WX    TMP DP  RH WIND       PRES   REMARKS
MARTINSBURG      N/A     69  65  86 CALM      30.01R
PETERSBURG     PTSUNNY   65  64  98 CALM      30.05F
$$




USA.gov is the U.S. government's official web portal to all federal, state and local government web resources and services.